Weather in Zelenovskiy

Russia / Kemerovo Oblast     55°00′04″N   86°23′22″E
temp.,
°C
wind,
m/s
gust,
m/s
humid.,
%
clouds,
%
prec.,
mm/h
press.,
hPa
HPBL,
m
16 april, fri
fri1601:00+2s41099100 0.1 1021245
04:00+3s51199100 0.0 1019307
07:00+3ssw51299100 0.1 1018355
10:00+4ssw412100100 0.0 1016307
13:00+5ssw512100100 0.0 1015369
16:00+7sw61296100 0.0 1013532
19:00+7sw51193100 0.3 1012293
22:00+5w41096100 0.6 1012270
17 april, sat
sat1701:000n51198100 1.5 1015556
04:00−1n3993100 0.7 1017614
07:00−1n4785100 0.8 1019699
10:00−1n567369 0.0 1021847
13:00+1nnw445931 0.0 10221210
16:00+2nw4353100 0.0 10221455
19:00+1nw356299 0.0 1022360
22:00−2wnw24785 0.0 102497
18 april, sun
sun1801:00−3wsw117638 0.0 102314
04:00−2s2475100 0.0 1022194
07:00−1s3773100 0.0 1020474
10:00+1ssw5761100 0.0 1017905
13:00+4sw6955100 0.0 10151691
16:00+5ssw5958100 0.1 10111667
19:00+3sse3782100 0.4 1008269
22:00+3sw81595100 2.8 1003673
19 april, mon
mon1901:00+3sw71490100 4.1 1000898
04:00+1wsw9159082 0.4 10001148
07:00−5wnw101482100 0.8 10091016
10:00−5wnw91170100 0.1 10171127
13:00−3wnw7954100 0.1 10221665
16:00−3wnw6848100 0.1 10242079
19:00−3nw5750100 0.1 10251588
22:00−5nw466129 0.0 1027812
20 april, tue
tue2001:00−5nnw3460100 0.0 1028967
04:00−6nnw236057 0.0 1028832
07:00−6nw345825 0.1 10291007
10:00−4wnw4542100 0.0 10301668
13:00−2wnw4536100 0.1 10281932
16:00−1wnw4536100 0.0 10272112
19:00−1w353968 0.0 10261733
22:00−3sw2454100 0.0 1025135